| time (UTC) | temp C | wind direction | speed KPH | gust KPH | rain 1hr cm | rain 24hr cm | rain mn cm | humidity % | barometer mb |
| 20260504024621 | 26 | 58 | 3.2 | 3.2 | 0.00 | 0.00 | 0.00 | 24 | 1009.8 |
| 20260504023637 | 27 | 109 | 1.6 | 3.2 | 0.00 | 0.00 | 0.00 | 24 | 1009.8 |
| 20260504022633 | 27 | 63 | 4.8 | 6.4 | 0.00 | 0.00 | 0.00 | 23 | 1010.0 |
| 20260504021656 | 27 | 76 | 4.8 | 4.8 | 0.00 | 0.00 | 0.00 | 22 | 1009.9 |
| 20260504020649 | 28 | 68 | 4.8 | 8.0 | 0.00 | 0.00 | 0.00 | 22 | 1009.9 |
| 20260504015630 | 28 | 38 | 4.8 | 9.7 | 0.00 | 0.00 | 0.00 | 22 | 1010.0 |
| 20260504014625 | 28 | 68 | 3.2 | 3.2 | 0.00 | 0.00 | 0.00 | 21 | 1010.1 |
| 20260504013625 | 28 | 111 | 3.2 | 3.2 | 0.00 | 0.00 | 0.00 | 21 | 1010.3 |
| 20260504012620 | 28 | 118 | 4.8 | 8.0 | 0.00 | 0.00 | 0.00 | 21 | 1010.3 |
| 20260504011622 | 28 | 111 | 3.2 | 4.8 | 0.00 | 0.00 | 0.00 | 20 | 1010.6 |
| 20260504010639 | 28 | 59 | 4.8 | 4.8 | 0.00 | 0.00 | 0.00 | 21 | 1010.7 |
| 20260504005638 | 28 | 38 | 4.8 | 8.0 | 0.00 | 0.00 | 0.00 | 21 | 1010.8 |
| 20260504004632 | 28 | 54 | 9.7 | 14.5 | 0.00 | 0.00 | 0.00 | 21 | 1010.8 |
| 20260504003649 | 28 | 90 | 8.0 | 8.0 | 0.00 | 0.00 | 0.00 | 20 | 1011.2 |
| 20260504002627 | 28 | 71 | 9.7 | 16.1 | 0.00 | 0.00 | 0.00 | 20 | 1011.2 |
| 20260504001627 | 28 | 117 | 3.2 | 3.2 | 0.00 | 0.00 | 0.00 | 21 | 1011.3 |
| 20260504000622 | 28 | 22 | 6.4 | 9.7 | 0.00 | 0.00 | 0.00 | 21 | 1011.4 |
| 20260503235623 | 28 | 46 | 11.3 | 16.1 | 0.00 | 0.00 | 0.00 | 19 | 1011.3 |
| 20260503234623 | 29 | 51 | 12.9 | 17.7 | 0.00 | 0.00 | 0.00 | 20 | 1011.5 |
| 20260503233637 | 28 | 2 | 6.4 | 9.7 | 0.00 | 0.00 | 0.00 | 21 | 1011.6 |
| 20260503232633 | 28 | 49 | 9.7 | 16.1 | 0.00 | 0.00 | 0.00 | 21 | 1011.8 |
| 20260503231714 | 28 | 15 | 8.0 | 11.3 | 0.00 | 0.00 | 0.00 | 21 | 1012.0 |
| 20260503230632 | 28 | 1 | 3.2 | 4.8 | 0.00 | 0.00 | 0.00 | 21 | 1012.0 |
| 20260503225630 | 28 | 23 | 9.7 | 14.5 | 0.00 | 0.00 | 0.00 | 23 | 1012.2 |
| 20260503224625 | 29 | 66 | 11.3 | 16.1 | 0.00 | 0.00 | 0.00 | 22 | 1012.3 |
| 20260503223625 | 28 | 7 | 8.0 | 14.5 | 0.00 | 0.00 | 0.00 | 23 | 1012.5 |
| 20260503222641 | 27 | 98 | 3.2 | 6.4 | 0.00 | 0.00 | 0.00 | 24 | 1012.7 |
| 20260503221641 | 29 | 43 | 11.3 | 16.1 | 0.00 | 0.00 | 0.00 | 22 | 1012.6 |
| 20260503220636 | 28 | 81 | 6.4 | 8.0 | 0.00 | 0.00 | 0.00 | 22 | 1012.9 |
| 20260503215654 | 28 | 19 | 11.3 | 17.7 | 0.00 | 0.00 | 0.00 | 23 | 1012.9 |
| 20260503214634 | 28 | 110 | 6.4 | 9.7 | 0.00 | 0.00 | 0.00 | 20 | 1013.2 |
| 20260503213630 | 28 | 87 | 4.8 | 6.4 | 0.00 | 0.00 | 0.00 | 21 | 1013.4 |
| 20260503212630 | 28 | 42 | 8.0 | 11.3 | 0.00 | 0.00 | 0.00 | 21 | 1013.5 |
| 20260503211628 | 28 | 15 | 1.6 | 6.4 | 0.00 | 0.00 | 0.00 | 23 | 1013.6 |
| 20260503210643 | 28 | 23 | 8.0 | 14.5 | 0.00 | 0.00 | 0.00 | 22 | 1013.7 |
| 20260503205623 | 27 | 15 | 12.9 | 17.7 | 0.00 | 0.00 | 0.00 | 24 | 1013.8 |
| 20260503204621 | 27 | 124 | 6.4 | 6.4 | 0.00 | 0.00 | 0.00 | 25 | 1014.0 |
| 20260503203641 | 27 | 33 | 3.2 | 8.0 | 0.00 | 0.00 | 0.00 | 26 | 1014.0 |
| 20260503202654 | 26 | 259 | 4.8 | 6.4 | 0.00 | 0.00 | 0.00 | 28 | 1013.9 |
| 20260503201631 | 26 | 359 | 1.6 | 3.2 | 0.00 | 0.00 | 0.00 | 28 | 1014.1 |
| 20260503200635 | 27 | 56 | 4.8 | 9.7 | 0.00 | 0.00 | 0.00 | 26 | 1014.2 |
| 20260503195632 | 25 | 259 | 0.0 | 3.2 | 0.00 | 0.00 | 0.00 | 30 | 1014.4 |
| 20260503194625 | 26 | 77 | 4.8 | 9.7 | 0.00 | 0.00 | 0.00 | 28 | 1014.5 |
| 20260503193626 | 26 | 13 | 4.8 | 8.0 | 0.00 | 0.00 | 0.00 | 30 | 1014.9 |
| 20260503192623 | 26 | 87 | 4.8 | 6.4 | 0.00 | 0.00 | 0.00 | 29 | 1014.9 |
| 20260503191640 | 26 | 230 | 1.6 | 6.4 | 0.00 | 0.00 | 0.00 | 32 | 1015.0 |
| 20260503190636 | 25 | 52 | 4.8 | 6.4 | 0.00 | 0.00 | 0.00 | 30 | 1015.0 |
| 20260503185654 | 25 | 49 | 4.8 | 11.3 | 0.00 | 0.00 | 0.00 | 33 | 1015.1 |
| 20260503184635 | 25 | 22 | 11.3 | 14.5 | 0.00 | 0.00 | 0.00 | 31 | 1015.2 |
| 20260503183649 | 25 | 61 | 6.4 | 9.7 | 0.00 | 0.00 | 0.00 | 32 | 1015.3 |
| 20260503182628 | 23 | 357 | 6.4 | 9.7 | 0.00 | 0.00 | 0.00 | 32 | 1015.4 |
| 20260503181624 | 23 | 23 | 8.0 | 9.7 | 0.00 | 0.00 | 0.00 | 34 | 1015.5 |
| 20260503180625 | 23 | 55 | 8.0 | 12.9 | 0.00 | 0.00 | 0.00 | 33 | 1015.6 |
| 20260503175640 | 23 | 66 | 4.8 | 4.8 | 0.00 | 0.00 | 0.00 | 35 | 1015.7 |
| 20260503174619 | 23 | 12 | 8.0 | 11.3 | 0.00 | 0.00 | 0.00 | 34 | 1015.7 |
| 20260503173659 | 22 | 28 | 9.7 | 14.5 | 0.00 | 0.00 | 0.00 | 37 | 1016.0 |
| 20260503172633 | 22 | 27 | 11.3 | 14.5 | 0.00 | 0.00 | 0.00 | 37 | 1016.0 |
| 20260503171655 | 21 | 12 | 9.7 | 14.5 | 0.00 | 0.00 | 0.00 | 40 | 1016.0 |
| 20260503170631 | 21 | 21 | 14.5 | 17.7 | 0.00 | 0.00 | 0.00 | 39 | 1015.9 |
| 20260503150621 | 18 | 97 | 1.6 | 3.2 | 0.00 | 0.00 | 0.00 | 45 | 1016.1 |
| 20260503130635 | 14 | 222 | 1.6 | 3.2 | 0.00 | 0.00 | 0.00 | 54 | 1015.6 |
| 20260503120133 | 15 | 252 | 3.2 | 3.2 | 0.00 | 0.00 | 0.00 | 52 | 1015.4 |
| 20260503110124 | 16 | 0.0 | 1.6 | 0.00 | 0.00 | 0.00 | 48 | 1015.6 | |
| 20260503100128 | 19 | 281 | 3.2 | 3.2 | 0.00 | 0.00 | 0.00 | 37 | 1015.3 |
| 20260503090153 | 19 | 260 | 1.6 | 3.2 | 0.00 | 0.00 | 0.00 | 40 | 1015.3 |
| 20260503081142 | 20 | 301 | 6.4 | 8.0 | 0.00 | 0.00 | 0.00 | 38 | 1015.0 |
| 20260503080119 | 20 | 293 | 3.2 | 6.4 | 0.00 | 0.00 | 0.00 | 36 | 1015.1 |
| 20260503072133 | 20 | 299 | 6.4 | 6.4 | 0.00 | 0.00 | 0.00 | 36 | 1014.9 |
| 20260503071130 | 19 | 312 | 6.4 | 6.4 | 0.00 | 0.00 | 0.00 | 39 | 1014.7 |
| 20260503070126 | 19 | 321 | 8.0 | 9.7 | 0.00 | 0.00 | 0.00 | 41 | 1014.8 |
| 20260503060132 | 20 | 295 | 6.4 | 8.0 | 0.00 | 0.00 | 0.00 | 40 | 1014.4 |
| 20260503054151 | 20 | 246 | 1.6 | 4.8 | 0.00 | 0.00 | 0.00 | 39 | 1014.4 |
| 20260503053148 | 20 | 297 | 4.8 | 6.4 | 0.00 | 0.00 | 0.00 | 40 | 1014.5 |
| 20260503052125 | 20 | 264 | 3.2 | 4.8 | 0.00 | 0.00 | 0.00 | 41 | 1014.4 |
| 20260503051120 | 21 | 248 | 3.2 | 4.8 | 0.00 | 0.00 | 0.00 | 39 | 1014.4 |
| 20260503050123 | 22 | 275 | 3.2 | 3.2 | 0.00 | 0.00 | 0.00 | 34 | 1014.5 |
| 20260503045138 | 22 | 279 | 1.6 | 3.2 | 0.00 | 0.00 | 0.00 | 34 | 1014.3 |
| 20260503044134 | 22 | 0.0 | 0.0 | 0.00 | 0.00 | 0.00 | 35 | 1014.2 | |
| 20260503043133 | 22 | 163 | 1.6 | 3.2 | 0.00 | 0.00 | 0.00 | 34 | 1014.1 |
| 20260503042134 | 22 | 172 | 0.0 | 1.6 | 0.00 | 0.00 | 0.00 | 35 | 1014.0 |
| 20260503041133 | 22 | 176 | 0.0 | 3.2 | 0.00 | 0.00 | 0.00 | 36 | 1013.8 |
| 20260503040130 | 22 | 357 | 4.8 | 6.4 | 0.00 | 0.00 | 0.00 | 37 | 1013.9 |
| 20260503035124 | 22 | 360 | 6.4 | 8.0 | 0.00 | 0.00 | 0.00 | 37 | 1013.6 |
| 20260503034135 | 23 | 13 | 6.4 | 8.0 | 0.00 | 0.00 | 0.00 | 33 | 1013.6 |
| 20260503033125 | 23 | 14 | 6.4 | 6.4 | 0.00 | 0.00 | 0.00 | 34 | 1013.4 |
| 20260503032139 | 23 | 5 | 4.8 | 8.0 | 0.00 | 0.00 | 0.00 | 35 | 1013.2 |
| 20260503031140 | 24 | 2 | 6.4 | 8.0 | 0.00 | 0.00 | 0.00 | 33 | 1013.1 |
| 20260503030132 | 25 | 6 | 8.0 | 9.7 | 0.00 | 0.00 | 0.00 | 30 | 1013.0 |
| 20260503025133 | 26 | 22 | 8.0 | 9.7 | 0.00 | 0.00 | 0.00 | 27 | 1013.0 |